Flag for Germany Weather past 2 weeks in Warstein, North Rhine-Westphalia, Germany

Now
45 °F

Partly sunny.


Feels Like: 37 °F
Forecast: 31 / 37 °F
Wind: 20 mph from Southwest

Location: Paderborn / Lippstadt

Current Time: Mar 3, 2015 at 4:15:19 PM

Latest Report: Mar 3, 2015 at 3:20 PM


Visibility: N/A

Pressure: 29.92 "Hg

Humidity: 61%

Dew point: 32 °F

Location of WarsteinLocation

Historic Weather in Warstein — Graph

°F

Warstein temperature yesterday

Maximum temperature yesterday: 43 °F (at 12:20 AM)
Minimum temperature yesterday: 30 °F (at 9:50 PM)
Average temperature yesterday: 38 °F

Past Weeks' High & Low Weather Summary

 TemperatureHumidityPressure
High48 °F (Mar 1, 11:50 AM)100% (Feb 16, 8:50 PM)30.74 "Hg (Feb 16, 8:50 PM)
Low25 °F (Feb 17, 5:20 AM)42% (Feb 28, 4:20 PM)29.33 "Hg (Feb 21, 6:50 AM)
Average38 °F85%29.93 "Hg
* Reported Feb 16 2:20 PM — Mar 3 2:50 PM, Warstein, Weather by CustomWeather, © 2015

Note: Actual official high and low records may vary slightly from our data, if they occured in-between our weather recording intervals... More about our weather records

Advertising

Warstein weather history for previous 24 hours

 ConditionsComfort  
Time TempWeatherWind HumidityBarometerVisibility
2:50 PM
Tue, Mar 3
43 °FScattered clouds.15 mph66%29.95 "HgN/A
2:20 PM41 °FScattered clouds.21 mph76%29.98 "HgN/A
1:50 PM43 °FScattered clouds.21 mph66%29.98 "HgN/A
1:20 PM43 °FScattered clouds.16 mph71%29.98 "HgN/A
12:50 PM43 °FScattered clouds.15 mph71%30.01 "HgN/A
12:20 PM41 °FScattered clouds.17 mph81%30.04 "HgN/A
11:50 AM41 °FScattered clouds.17 mph81%30.04 "HgN/A
11:20 AM39 °FScattered clouds.17 mph87%30.04 "HgN/A
10:50 AM37 °FScattered clouds.20 mph87%30.04 "HgN/A
10:20 AM37 °FScattered clouds.18 mph93%30.04 "HgN/A
9:50 AM37 °FScattered clouds.20 mph87%30.04 "HgN/A
9:20 AM36 °FScattered clouds.20 mph93%30.04 "HgN/A
8:50 AM34 °FScattered clouds.20 mph100%30.04 "HgN/A
8:20 AM34 °FPartly sunny.17 mph100%30.04 "HgN/A
7:50 AM34 °FScattered clouds.14 mph100%30.01 "HgN/A
7:20 AM34 °FScattered clouds.17 mph93%30.01 "HgN/A
6:50 AM34 °FPassing clouds.16 mph93%30.01 "HgN/A
6:20 AM34 °FPassing clouds.16 mph100%30.01 "HgN/A
5:50 AM34 °FClear.15 mph93%30.01 "Hg10 mi
5:20 AM32 °FClear.17 mph100%30.01 "Hg10 mi
4:50 AM32 °FClear.14 mph100%30.01 "Hg10 mi
4:20 AM34 °FClear.14 mph93%30.01 "Hg10 mi
3:50 AM34 °FClear.15 mph93%29.98 "Hg10 mi
3:20 AM34 °FClear.16 mph93%29.98 "Hg10 mi
2:50 AM34 °FClear.16 mph93%29.98 "Hg10 mi
2:20 AM34 °FClear.15 mph87%29.98 "Hg10 mi
1:50 AM36 °FClear.17 mph81%29.95 "Hg10 mi
1:20 AM36 °FClear.17 mph81%29.95 "Hg10 mi
12:50 AM36 °FClear.18 mph87%29.92 "Hg10 mi
12:20 AM34 °FPassing clouds.17 mph100%29.92 "HgN/A
11:50 PM
Mon, Mar 2
34 °FPassing clouds.14 mph100%29.89 "HgN/A
11:20 PM32 °FPassing clouds.15 mph100%29.89 "HgN/A
10:50 PM32 °FPartly cloudy.16 mph100%29.89 "HgN/A
10:20 PM30 °FSnow. Passing clouds.13 mph100%29.86 "Hg1 mi
9:50 PM30 °FThunderstorms. Partly cloudy.14 mph100%29.86 "Hg1 mi
9:20 PM36 °FPassing clouds.15 mph87%29.80 "HgN/A
8:50 PM34 °FPassing clouds.16 mph100%29.80 "HgN/A
8:20 PM34 °FPassing clouds.16 mph100%29.80 "HgN/A
7:50 PM34 °FPassing clouds.14 mph100%29.77 "HgN/A
7:20 PM34 °FLight rain. Passing clouds.14 mph100%29.77 "HgN/A
6:50 PM34 °FLight rain. Passing clouds.9 mph100%29.77 "Hg6 mi
6:20 PM32 °FRain. Passing clouds.16 mph100%29.71 "Hg6 mi
5:50 PM36 °FRain. Partly sunny.13 mph100%29.71 "HgN/A
5:20 PM41 °FRain showers. Broken clouds.15 mph57%29.68 "HgN/A
4:50 PM43 °FSunny.13 mph49%29.65 "Hg10 mi
4:20 PM43 °FPassing clouds.10 mph49%29.65 "HgN/A
Weather by CustomWeather, © 2015

See weather overviewHow to use our weather pages